| time (UTC) | temp F | wind direction | speed MPH | gust MPH | rain 1hr in | rain 24hr in | rain mn in | humidity % | barometer mb |
| 20260503030754 | 51 | 8 | 0.0 | 0.0 | 0.00 | 0.05 | 0.05 | 53 | 1015.4 |
| 20260503030250 | 50 | 342 | 2.0 | 2.0 | 0.00 | 0.05 | 0.05 | 52 | 1015.5 |
| 20260503025747 | 51 | 177 | 0.0 | 0.0 | 0.00 | 0.05 | 0.05 | 52 | 1015.2 |
| 20260503025245 | 51 | 216 | 0.0 | 0.0 | 0.00 | 0.05 | 0.05 | 53 | 1015.5 |
| 20260503024741 | 51 | 234 | 1.0 | 1.0 | 0.00 | 0.05 | 0.05 | 52 | 1015.5 |
| 20260503024238 | 51 | 143 | 0.0 | 0.0 | 0.00 | 0.05 | 0.05 | 52 | 1015.5 |
| 20260503023735 | 51 | 286 | 1.0 | 1.0 | 0.00 | 0.05 | 0.05 | 51 | 1015.4 |
| 20260503023232 | 52 | 154 | 0.0 | 0.0 | 0.00 | 0.05 | 0.05 | 52 | 1015.6 |
| 20260503022728 | 52 | 319 | 4.0 | 4.0 | 0.00 | 0.05 | 0.05 | 50 | 1015.3 |
| 20260503022228 | 52 | 5 | 2.0 | 2.0 | 0.00 | 0.05 | 0.05 | 50 | 1015.4 |
| 20260503021725 | 52 | 359 | 2.0 | 3.0 | 0.00 | 0.05 | 0.05 | 50 | 1015.5 |
| 20260503021221 | 52 | 45 | 1.0 | 2.0 | 0.00 | 0.05 | 0.05 | 49 | 1015.5 |
| 20260503020719 | 53 | 2 | 3.0 | 3.0 | 0.00 | 0.05 | 0.05 | 48 | 1015.8 |
| 20260503020217 | 52 | 5 | 2.0 | 2.0 | 0.00 | 0.05 | 0.05 | 49 | 1015.9 |
| 20260503015713 | 53 | 42 | 3.0 | 4.0 | 0.00 | 0.05 | 0.05 | 48 | 1015.6 |
| 20260503015210 | 53 | 38 | 1.0 | 2.0 | 0.00 | 0.05 | 0.05 | 48 | 1015.6 |
| 20260503014706 | 53 | 170 | 0.0 | 1.0 | 0.00 | 0.05 | 0.05 | 49 | 1015.9 |
| 20260503014204 | 53 | 350 | 4.0 | 6.0 | 0.00 | 0.05 | 0.05 | 48 | 1015.5 |
| 20260503013701 | 53 | 112 | 1.0 | 1.0 | 0.00 | 0.05 | 0.05 | 48 | 1015.6 |
| 20260503013159 | 53 | 79 | 1.0 | 2.0 | 0.00 | 0.05 | 0.05 | 46 | 1015.9 |
| 20260503012656 | 53 | 91 | 2.0 | 2.0 | 0.00 | 0.05 | 0.05 | 47 | 1015.6 |
| 20260503012153 | 53 | 93 | 0.0 | 0.0 | 0.00 | 0.05 | 0.05 | 47 | 1015.7 |
| 20260503011648 | 53 | 150 | 1.0 | 1.0 | 0.00 | 0.05 | 0.05 | 46 | 1015.7 |
| 20260503011146 | 53 | 18 | 2.0 | 3.0 | 0.00 | 0.05 | 0.05 | 46 | 1015.5 |
| 20260503010642 | 53 | 337 | 2.0 | 2.0 | 0.00 | 0.05 | 0.05 | 45 | 1015.5 |
| 20260503010140 | 53 | 345 | 2.0 | 2.0 | 0.00 | 0.05 | 0.05 | 45 | 1015.3 |
| 20260503005637 | 53 | 6 | 2.0 | 2.0 | 0.00 | 0.05 | 0.05 | 45 | 1015.3 |
| 20260503005134 | 53 | 183 | 0.0 | 1.0 | 0.00 | 0.05 | 0.05 | 46 | 1015.5 |
| 20260503004630 | 53 | 194 | 0.0 | 1.0 | 0.00 | 0.05 | 0.05 | 46 | 1015.2 |
| 20260503004129 | 53 | 319 | 2.0 | 3.0 | 0.00 | 0.05 | 0.05 | 46 | 1015.3 |
| 20260503003625 | 53 | 69 | 1.0 | 1.0 | 0.00 | 0.05 | 0.05 | 47 | 1015.4 |
| 20260503003122 | 54 | 325 | 3.0 | 3.0 | 0.00 | 0.05 | 0.05 | 46 | 1015.1 |
| 20260503002619 | 54 | 127 | 1.0 | 1.0 | 0.00 | 0.05 | 0.05 | 47 | 1015.2 |
| 20260503002116 | 53 | 15 | 2.0 | 3.0 | 0.00 | 0.05 | 0.05 | 46 | 1015.1 |
| 20260503001612 | 53 | 20 | 2.0 | 2.0 | 0.00 | 0.05 | 0.05 | 51 | 1015.1 |
| 20260503001109 | 53 | 183 | 1.0 | 1.0 | 0.00 | 0.05 | 0.05 | 52 | 1015.1 |
| 20260503000607 | 53 | 181 | 0.0 | 0.0 | 0.00 | 0.05 | 0.05 | 51 | 1015.0 |
| 20260503000104 | 53 | 179 | 0.0 | 0.0 | 0.00 | 0.05 | 0.05 | 52 | 1015.0 |
| 20260502235600 | 53 | 175 | 0.0 | 1.0 | 0.00 | 0.05 | 0.05 | 50 | 1015.1 |
| 20260502235058 | 54 | 124 | 0.0 | 0.0 | 0.00 | 0.05 | 0.05 | 51 | 1015.0 |
| 20260502234554 | 54 | 106 | 1.0 | 1.0 | 0.00 | 0.05 | 0.05 | 49 | 1014.8 |
| 20260502234052 | 55 | 120 | 0.0 | 0.0 | 0.00 | 0.05 | 0.05 | 48 | 1014.7 |
| 20260502233551 | 55 | 188 | 0.0 | 0.0 | 0.00 | 0.05 | 0.05 | 50 | 1014.8 |
| 20260502233048 | 56 | 181 | 0.0 | 0.0 | 0.00 | 0.05 | 0.05 | 48 | 1014.8 |
| 20260502232544 | 57 | 178 | 0.0 | 0.0 | 0.00 | 0.05 | 0.05 | 45 | 1014.7 |
| 20260502232043 | 58 | 165 | 0.0 | 1.0 | 0.00 | 0.05 | 0.05 | 44 | 1014.7 |
| 20260502231539 | 58 | 202 | 0.0 | 1.0 | 0.00 | 0.05 | 0.05 | 46 | 1014.6 |
| 20260502231037 | 57 | 181 | 0.0 | 0.0 | 0.00 | 0.05 | 0.05 | 44 | 1014.5 |
| 20260502230535 | 57 | 179 | 0.0 | 0.0 | 0.00 | 0.05 | 0.05 | 44 | 1014.5 |
| 20260502230033 | 57 | 186 | 0.0 | 0.0 | 0.00 | 0.05 | 0.05 | 45 | 1014.4 |
| 20260502225528 | 57 | 176 | 0.0 | 0.0 | 0.00 | 0.05 | 0.05 | 44 | 1014.5 |
| 20260502225025 | 58 | 190 | 0.0 | 0.0 | 0.00 | 0.05 | 0.05 | 43 | 1014.6 |
| 20260502224521 | 58 | 189 | 0.0 | 1.0 | 0.00 | 0.05 | 0.05 | 42 | 1014.6 |
| 20260502224019 | 58 | 131 | 1.0 | 1.0 | 0.00 | 0.05 | 0.05 | 42 | 1014.7 |
| 20260502223516 | 59 | 179 | 0.0 | 1.0 | 0.00 | 0.05 | 0.05 | 41 | 1014.6 |
| 20260502223015 | 60 | 67 | 0.0 | 1.0 | 0.00 | 0.05 | 0.05 | 39 | 1014.5 |
| 20260502222511 | 61 | 270 | 2.0 | 2.0 | 0.00 | 0.05 | 0.05 | 39 | 1014.5 |
| 20260502222008 | 61 | 1 | 1.0 | 3.0 | 0.00 | 0.05 | 0.05 | 38 | 1014.6 |
| 20260502221503 | 60 | 256 | 2.0 | 2.0 | 0.00 | 0.05 | 0.05 | 41 | 1014.4 |
| 20260502221001 | 59 | 147 | 0.0 | 1.0 | 0.00 | 0.05 | 0.05 | 51 | 1014.3 |
| 20260502220456 | 60 | 355 | 5.0 | 6.0 | 0.00 | 0.05 | 0.05 | 51 | 1014.3 |
| 20260502215953 | 58 | 94 | 0.0 | 1.0 | 0.00 | 0.05 | 0.05 | 52 | 1014.3 |
| 20260502215451 | 58 | 175 | 3.0 | 4.0 | 0.00 | 0.05 | 0.05 | 64 | 1014.2 |
| 20260502214948 | 58 | 160 | 2.0 | 2.0 | 0.00 | 0.05 | 0.05 | 61 | 1014.4 |
| 20260502214444 | 59 | 221 | 1.0 | 2.0 | 0.00 | 0.05 | 0.05 | 60 | 1014.4 |
| 20260502213942 | 58 | 195 | 1.0 | 1.0 | 0.00 | 0.05 | 0.05 | 63 | 1014.4 |
| 20260502213438 | 58 | 160 | 2.0 | 3.0 | 0.00 | 0.05 | 0.05 | 62 | 1014.6 |
| 20260502212937 | 58 | 141 | 4.0 | 6.0 | 0.00 | 0.05 | 0.05 | 62 | 1014.1 |
| 20260502212435 | 59 | 131 | 2.0 | 3.0 | 0.00 | 0.05 | 0.05 | 61 | 1014.3 |
| 20260502211932 | 59 | 150 | 1.0 | 1.0 | 0.00 | 0.05 | 0.05 | 62 | 1014.2 |
| 20260502211428 | 60 | 222 | 4.0 | 6.0 | 0.00 | 0.05 | 0.05 | 61 | 1014.1 |
| 20260502210925 | 62 | 126 | 1.0 | 1.0 | 0.00 | 0.05 | 0.05 | 58 | 1014.0 |
| 20260502210422 | 60 | 155 | 0.0 | 0.0 | 0.00 | 0.05 | 0.05 | 43 | 1014.0 |
| 20260502205919 | 60 | 255 | 2.0 | 2.0 | 0.00 | 0.05 | 0.05 | 42 | 1014.1 |
| 20260502205415 | 61 | 307 | 1.0 | 2.0 | 0.00 | 0.05 | 0.05 | 43 | 1014.1 |
| 20260502204913 | 60 | 187 | 1.0 | 2.0 | 0.00 | 0.05 | 0.05 | 43 | 1013.9 |
| 20260502204409 | 60 | 324 | 2.0 | 3.0 | 0.00 | 0.05 | 0.05 | 43 | 1014.1 |
| 20260502203908 | 60 | 179 | 1.0 | 1.0 | 0.00 | 0.05 | 0.05 | 44 | 1014.2 |
| 20260502203405 | 60 | 347 | 2.0 | 3.0 | 0.00 | 0.05 | 0.05 | 42 | 1014.5 |
| 20260502202900 | 62 | 164 | 1.0 | 1.0 | 0.00 | 0.05 | 0.05 | 48 | 1014.3 |
| 20260502202358 | 62 | 94 | 1.0 | 2.0 | 0.00 | 0.05 | 0.05 | 43 | 1014.4 |
| 20260502201855 | 62 | 110 | 1.0 | 1.0 | 0.00 | 0.05 | 0.05 | 43 | 1014.3 |
| 20260502201351 | 61 | 31 | 2.0 | 3.0 | 0.00 | 0.05 | 0.05 | 46 | 1014.5 |
| 20260502200848 | 59 | 209 | 0.0 | 1.0 | 0.00 | 0.05 | 0.05 | 45 | 1014.5 |
| 20260502200343 | 59 | 177 | 0.0 | 1.0 | 0.00 | 0.05 | 0.05 | 56 | 1014.5 |
| 20260502195842 | 59 | 148 | 2.0 | 2.0 | 0.00 | 0.05 | 0.05 | 55 | 1014.5 |
| 20260502195338 | 59 | 357 | 1.0 | 2.0 | 0.00 | 0.05 | 0.05 | 55 | 1014.7 |
| 20260502194835 | 59 | 13 | 2.0 | 2.0 | 0.00 | 0.05 | 0.05 | 52 | 1014.7 |
| 20260502194332 | 59 | 248 | 2.0 | 2.0 | 0.00 | 0.05 | 0.05 | 51 | 1014.9 |
| 20260502193828 | 58 | 171 | 0.0 | 0.0 | 0.00 | 0.05 | 0.05 | 59 | 1014.9 |
| 20260502193325 | 59 | 172 | 0.0 | 1.0 | 0.00 | 0.05 | 0.05 | 56 | 1015.1 |
| 20260502192820 | 59 | 172 | 0.0 | 0.0 | 0.00 | 0.05 | 0.05 | 57 | 1015.0 |
| 20260502192318 | 59 | 347 | 2.0 | 2.0 | 0.00 | 0.05 | 0.05 | 56 | 1015.2 |
| 20260502191815 | 59 | 182 | 0.0 | 0.0 | 0.00 | 0.05 | 0.05 | 60 | 1014.9 |
| 20260502191313 | 59 | 171 | 1.0 | 1.0 | 0.00 | 0.05 | 0.05 | 57 | 1015.2 |
| 20260502190810 | 59 | 150 | 0.0 | 1.0 | 0.00 | 0.05 | 0.05 | 60 | 1015.2 |
| 20260502190307 | 60 | 69 | 0.0 | 0.0 | 0.00 | 0.05 | 0.05 | 58 | 1015.1 |
| 20260502185802 | 59 | 256 | 2.0 | 3.0 | 0.00 | 0.05 | 0.05 | 59 | 1015.4 |
| 20260502185258 | 59 | 161 | 0.0 | 0.0 | 0.00 | 0.05 | 0.05 | 62 | 1015.4 |
| 20260502184755 | 59 | 140 | 0.0 | 0.0 | 0.00 | 0.05 | 0.05 | 62 | 1015.3 |
| 20260502184251 | 59 | 179 | 2.0 | 2.0 | 0.00 | 0.05 | 0.05 | 62 | 1015.5 |
| 20260502183748 | 58 | 283 | 2.0 | 3.0 | 0.00 | 0.05 | 0.05 | 63 | 1015.6 |
| 20260502183245 | 57 | 161 | 0.0 | 1.0 | 0.00 | 0.05 | 0.05 | 63 | 1015.4 |
| 20260502182740 | 57 | 88 | 1.0 | 1.0 | 0.00 | 0.05 | 0.05 | 64 | 1015.5 |
| 20260502182235 | 59 | 107 | 2.0 | 3.0 | 0.00 | 0.05 | 0.05 | 61 | 1015.7 |
| 20260502181732 | 59 | 191 | 0.0 | 0.0 | 0.00 | 0.05 | 0.05 | 56 | 1015.6 |
| 20260502181231 | 59 | 191 | 1.0 | 1.0 | 0.00 | 0.05 | 0.05 | 54 | 1015.5 |
| 20260502180728 | 58 | 137 | 2.0 | 3.0 | 0.00 | 0.05 | 0.05 | 55 | 1015.5 |
| 20260502180225 | 58 | 228 | 4.0 | 4.0 | 0.00 | 0.05 | 0.05 | 55 | 1015.5 |
| 20260502170150 | 57 | 282 | 1.0 | 2.0 | 0.00 | 0.05 | 0.05 | 61 | 1016.0 |
| 20260502164136 | 57 | 236 | 4.0 | 6.0 | 0.00 | 0.05 | 0.05 | 63 | 1016.0 |
| 20260502163632 | 59 | 209 | 2.0 | 3.0 | 0.00 | 0.05 | 0.05 | 61 | 1016.1 |
| 20260502163129 | 59 | 12 | 2.0 | 4.0 | 0.00 | 0.05 | 0.05 | 61 | 1015.9 |
| 20260502162626 | 58 | 264 | 1.0 | 2.0 | 0.00 | 0.05 | 0.05 | 61 | 1016.1 |
| 20260502162123 | 57 | 195 | 1.0 | 1.0 | 0.00 | 0.05 | 0.05 | 62 | 1016.1 |
| 20260502161620 | 57 | 213 | 2.0 | 3.0 | 0.00 | 0.05 | 0.05 | 64 | 1016.0 |
| 20260502161117 | 58 | 246 | 2.0 | 3.0 | 0.00 | 0.05 | 0.05 | 63 | 1016.0 |
| 20260502160615 | 57 | 270 | 2.0 | 2.0 | 0.00 | 0.05 | 0.05 | 68 | 1016.2 |
| 20260502160113 | 57 | 201 | 0.0 | 1.0 | 0.00 | 0.05 | 0.05 | 66 | 1016.5 |
| 20260502152022 | 54 | 185 | 0.0 | 0.0 | 0.00 | 0.05 | 0.05 | 74 | 1016.4 |
| 20260502151519 | 54 | 354 | 2.0 | 2.0 | 0.00 | 0.05 | 0.05 | 73 | 1016.4 |
| 20260502151016 | 55 | 211 | 2.0 | 2.0 | 0.00 | 0.05 | 0.05 | 72 | 1016.4 |
| 20260502150514 | 55 | 251 | 2.0 | 2.0 | 0.00 | 0.05 | 0.05 | 72 | 1016.5 |
| 20260502130352 | 52 | 191 | 0.0 | 0.0 | 0.00 | 0.05 | 0.05 | 83 | 1016.9 |
| 20260502123335 | 51 | 187 | 0.0 | 0.0 | 0.00 | 0.05 | 0.05 | 87 | 1016.8 |
| 20260502122832 | 51 | 152 | 0.0 | 0.0 | 0.00 | 0.05 | 0.05 | 88 | 1016.9 |
| 20260502122327 | 51 | 154 | 0.0 | 0.0 | 0.00 | 0.05 | 0.05 | 89 | 1016.8 |
| 20260502121826 | 50 | 154 | 0.0 | 0.0 | 0.00 | 0.05 | 0.05 | 89 | 1016.6 |
| 20260502121323 | 50 | 154 | 0.0 | 0.0 | 0.00 | 0.05 | 0.05 | 89 | 1016.6 |
| 20260502120820 | 50 | 157 | 0.0 | 0.0 | 0.00 | 0.05 | 0.05 | 89 | 1016.6 |
| 20260502120316 | 50 | 157 | 0.0 | 0.0 | 0.00 | 0.05 | 0.05 | 89 | 1016.7 |
| 20260502115814 | 50 | 135 | 1.0 | 1.0 | 0.00 | 0.05 | 0.05 | 89 | 1016.7 |
| 20260502115311 | 50 | 158 | 0.0 | 0.0 | 0.00 | 0.05 | 0.05 | 89 | 1016.7 |
| 20260502114808 | 50 | 159 | 0.0 | 0.0 | 0.00 | 0.05 | 0.05 | 90 | 1016.4 |
| 20260502114304 | 50 | 151 | 0.0 | 1.0 | 0.00 | 0.05 | 0.05 | 90 | 1016.6 |
| 20260502113801 | 50 | 161 | 0.0 | 0.0 | 0.00 | 0.05 | 0.05 | 90 | 1016.8 |
| 20260502113259 | 50 | 161 | 0.0 | 0.0 | 0.00 | 0.05 | 0.05 | 90 | 1016.7 |
| 20260502112757 | 50 | 168 | 0.0 | 0.0 | 0.00 | 0.05 | 0.05 | 90 | 1016.7 |
| 20260502112254 | 50 | 168 | 0.0 | 0.0 | 0.00 | 0.05 | 0.05 | 91 | 1016.8 |
| 20260502111751 | 50 | 168 | 0.0 | 0.0 | 0.00 | 0.05 | 0.05 | 91 | 1016.6 |
| 20260502111249 | 50 | 168 | 0.0 | 0.0 | 0.00 | 0.05 | 0.05 | 92 | 1016.3 |
| 20260502110746 | 50 | 168 | 0.0 | 0.0 | 0.00 | 0.05 | 0.05 | 92 | 1016.3 |
| 20260502110244 | 48 | 169 | 0.0 | 0.0 | 0.00 | 0.05 | 0.05 | 92 | 1016.3 |
| 20260502105742 | 48 | 169 | 0.0 | 0.0 | 0.00 | 0.05 | 0.05 | 92 | 1016.1 |
| 20260502105237 | 48 | 169 | 0.0 | 0.0 | 0.00 | 0.05 | 0.05 | 92 | 1016.3 |
| 20260502104736 | 48 | 169 | 0.0 | 0.0 | 0.00 | 0.05 | 0.05 | 91 | 1016.3 |
| 20260502104233 | 48 | 170 | 0.0 | 0.0 | 0.00 | 0.05 | 0.05 | 91 | 1016.0 |
| 20260502103731 | 48 | 190 | 0.0 | 0.0 | 0.00 | 0.05 | 0.05 | 91 | 1016.2 |
| 20260502103228 | 48 | 160 | 0.0 | 0.0 | 0.07 | 0.05 | 0.05 | 91 | 1015.9 |
| 20260502102725 | 49 | 145 | 0.0 | 0.0 | 0.12 | 0.05 | 0.05 | 91 | 1015.6 |
| 20260502102221 | 49 | 155 | 0.0 | 0.0 | 0.12 | 0.04 | 0.04 | 90 | 1015.9 |
| 20260502101719 | 49 | 133 | 0.0 | 0.0 | 0.12 | 0.03 | 0.03 | 90 | 1016.0 |
| 20260502101217 | 49 | 168 | 0.0 | 0.0 | 0.12 | 0.02 | 0.02 | 89 | 1016.4 |
| 20260502100715 | 49 | 169 | 0.0 | 0.0 | 0.07 | 0.01 | 0.01 | 88 | 1016.3 |
| 20260502100213 | 49 | 169 | 0.0 | 0.0 | 0.00 | 0.00 | 0.00 | 88 | 1016.5 |
| 20260502091147 | 48 | 166 | 0.0 | 0.0 | 0.00 | 0.00 | 0.00 | 91 | 1015.7 |
| 20260502090644 | 48 | 160 | 0.0 | 0.0 | 0.00 | 0.00 | 0.00 | 91 | 1016.0 |
| 20260502090142 | 48 | 164 | 0.0 | 0.0 | 0.00 | 0.00 | 0.00 | 91 | 1016.0 |
| 20260502080104 | 48 | 201 | 0.0 | 0.0 | 0.00 | 0.00 | 0.00 | 90 | 1015.4 |
| 20260502071533 | 48 | 118 | 0.0 | 1.0 | 0.00 | 0.00 | 0.00 | 90 | 1015.8 |
| 20260502071031 | 48 | 230 | 1.0 | 1.0 | 0.00 | 0.00 | 0.00 | 90 | 1016.1 |
| 20260502070529 | 48 | 170 | 0.0 | 0.0 | 0.00 | 0.00 | 0.00 | 90 | 1015.9 |
| 20260502070027 | 48 | 170 | 0.0 | 0.0 | 0.00 | 0.00 | 0.00 | 90 | 1016.0 |
| 20260502065525 | 48 | 170 | 0.0 | 0.0 | 0.00 | 0.00 | 0.00 | 90 | 1015.9 |
| 20260502065023 | 48 | 170 | 0.0 | 0.0 | 0.00 | 0.00 | 0.00 | 90 | 1016.0 |
| 20260502064521 | 47 | 170 | 0.0 | 0.0 | 0.00 | 0.00 | 0.00 | 90 | 1016.1 |
| 20260502064018 | 47 | 170 | 0.0 | 0.0 | 0.00 | 0.00 | 0.00 | 89 | 1016.1 |
| 20260502063515 | 47 | 170 | 0.0 | 0.0 | 0.00 | 0.00 | 0.00 | 89 | 1015.9 |
| 20260502063013 | 47 | 170 | 0.0 | 0.0 | 0.00 | 0.00 | 0.00 | 89 | 1015.8 |
| 20260502062509 | 47 | 170 | 0.0 | 0.0 | 0.00 | 0.00 | 0.00 | 89 | 1015.9 |
| 20260502062008 | 47 | 170 | 0.0 | 0.0 | 0.00 | 0.00 | 0.00 | 89 | 1016.0 |
| 20260502061506 | 48 | 170 | 0.0 | 0.0 | 0.00 | 0.00 | 0.00 | 88 | 1015.9 |
| 20260502061003 | 48 | 166 | 0.0 | 0.0 | 0.00 | 0.00 | 0.00 | 88 | 1016.0 |
| 20260502060458 | 48 | 165 | 0.0 | 0.0 | 0.00 | 0.00 | 0.00 | 88 | 1016.1 |
| 20260502055955 | 48 | 165 | 0.0 | 0.0 | 0.00 | 0.00 | 0.00 | 88 | 1016.1 |
| 20260502055453 | 48 | 165 | 0.0 | 0.0 | 0.00 | 0.00 | 0.00 | 87 | 1016.3 |
| 20260502054952 | 48 | 173 | 0.0 | 0.0 | 0.00 | 0.00 | 0.00 | 87 | 1016.2 |
| 20260502054449 | 48 | 166 | 0.0 | 0.0 | 0.00 | 0.00 | 0.00 | 87 | 1016.2 |
| 20260502053946 | 49 | 165 | 0.0 | 0.0 | 0.00 | 0.00 | 0.00 | 87 | 1016.2 |
| 20260502053443 | 48 | 187 | 0.0 | 0.0 | 0.00 | 0.00 | 0.00 | 87 | 1016.4 |
| 20260502052941 | 48 | 163 | 0.0 | 0.0 | 0.00 | 0.00 | 0.00 | 87 | 1016.3 |
| 20260502052439 | 49 | 162 | 0.0 | 0.0 | 0.00 | 0.00 | 0.00 | 86 | 1016.2 |
| 20260502051938 | 49 | 170 | 0.0 | 0.0 | 0.00 | 0.00 | 0.00 | 86 | 1016.4 |
| 20260502051435 | 49 | 197 | 0.0 | 0.0 | 0.00 | 0.00 | 0.00 | 86 | 1016.3 |
| 20260502050932 | 49 | 194 | 0.0 | 0.0 | 0.00 | 0.00 | 0.00 | 86 | 1016.3 |
| 20260502050423 | 49 | 193 | 0.0 | 0.0 | 0.00 | 0.00 | 0.00 | 86 | 1016.1 |
| 20260502045921 | 49 | 200 | 1.0 | 1.0 | 0.00 | 0.00 | 0.00 | 86 | 1016.2 |
| 20260502045417 | 50 | 182 | 0.0 | 0.0 | 0.00 | 0.00 | 0.00 | 86 | 1016.3 |
| 20260502044914 | 49 | 182 | 0.0 | 0.0 | 0.00 | 0.00 | 0.00 | 86 | 1016.4 |
| 20260502044409 | 49 | 182 | 0.0 | 0.0 | 0.00 | 0.00 | 0.00 | 85 | 1016.5 |
| 20260502043907 | 49 | 182 | 0.0 | 0.0 | 0.00 | 0.00 | 0.00 | 85 | 1016.2 |
| 20260502043405 | 48 | 182 | 0.0 | 0.0 | 0.00 | 0.00 | 0.00 | 85 | 1016.3 |
| 20260502042904 | 48 | 182 | 0.0 | 0.0 | 0.00 | 0.00 | 0.00 | 85 | 1016.6 |
| 20260502042402 | 48 | 182 | 0.0 | 0.0 | 0.00 | 0.00 | 0.00 | 85 | 1016.8 |
| 20260502041859 | 48 | 181 | 0.0 | 0.0 | 0.00 | 0.00 | 0.00 | 85 | 1016.7 |
| 20260502041356 | 48 | 181 | 0.0 | 0.0 | 0.00 | 0.00 | 0.00 | 85 | 1016.4 |
| 20260502040853 | 48 | 201 | 0.0 | 0.0 | 0.00 | 0.00 | 0.00 | 85 | 1016.5 |
| 20260502040350 | 48 | 200 | 0.0 | 0.0 | 0.00 | 0.00 | 0.00 | 85 | 1016.5 |
| 20260502035846 | 48 | 200 | 0.0 | 0.0 | 0.00 | 0.00 | 0.00 | 85 | 1016.7 |
| 20260502035343 | 48 | 201 | 0.0 | 0.0 | 0.00 | 0.00 | 0.00 | 85 | 1016.6 |
| 20260502034840 | 48 | 214 | 0.0 | 1.0 | 0.00 | 0.00 | 0.00 | 85 | 1016.6 |
| 20260502034338 | 48 | 195 | 0.0 | 0.0 | 0.00 | 0.00 | 0.00 | 84 | 1016.3 |
| 20260502033837 | 48 | 196 | 0.0 | 0.0 | 0.00 | 0.00 | 0.00 | 84 | 1016.5 |
| 20260502033334 | 48 | 196 | 0.0 | 0.0 | 0.00 | 0.00 | 0.00 | 84 | 1016.4 |
| 20260502032830 | 48 | 196 | 0.0 | 0.0 | 0.00 | 0.00 | 0.00 | 84 | 1016.2 |
| 20260502032326 | 48 | 196 | 0.0 | 0.0 | 0.00 | 0.00 | 0.00 | 84 | 1016.7 |
| 20260502031824 | 48 | 195 | 0.0 | 0.0 | 0.00 | 0.00 | 0.00 | 84 | 1016.5 |
| 20260502031322 | 48 | 196 | 0.0 | 0.0 | 0.00 | 0.00 | 0.00 | 84 | 1017.0 |